Regional Weather Roundup
Issued by NWS

Home | Current Version | Previous Version | Graphics & Text | Print | Product List | Glossary On
Versions: 1 2 3 4 5 6 7 8 9 10 11 12 13 14 15 16 17 18 19 20 21 22 23 24 25 26 27 28
000
ASUS45 KTFX 182110
RWRMT
MONTANA REGIONAL WEATHER ROUNDUP
NATIONAL WEATHER SERVICE GREAT FALLS MT
300 PM MDT WED APR 18 2018

NOTE: "FAIR" INDICATES FEW OR NO CLOUDS BELOW 12000 FEET WITH NO
SIGNIFICANT WEATHER AND/OR OBSTRUCTIONS TO VISIBILITY.

MTZ001>007-043-182200-
WEST OF THE DIVIDE

CITY           SKY/WX    TMP DP  RH WIND       PRES   REMARKS
KALISPELL      FAIR      51  24  34 E7        30.19F
MISSOULA       FAIR      51  22  31 CALM      30.17F
BUTTE          FAIR      46  17  31 CALM      30.14F
MULLAN PASS    FAIR      35  21  56 VRB3      30.14F
ANACONDA         N/A     50  12  22 E8        30.12F
DEER LODGE       N/A     48  12  23 S6        30.15F
HAMILTON         N/A     52  12  20 MISG      30.13F
PLAINS           N/A     54  25  32 CALM      30.18S
RONAN            N/A     48  19  32 CALM      30.20F
$$

MTZ008-052>055-182200-
SOUTHWEST MONTANA

CITY           SKY/WX    TMP DP  RH WIND       PRES   REMARKS
BOZEMAN        FAIR      50  19  29 VRB6      30.16F
DILLON         FAIR      44  18  35 SE7       30.14F
ENNIS          PTSUNNY   46  16  29 SW10G18   30.18F
W YELLOWSTONE  FAIR      39  10  30 VRB5G15   30.15F
THREE FORKS      N/A     52  21  29 N3        30.13F
TWIN BRIDGES     N/A     48  15  27 S13       30.12F
$$

MTZ009-010-012-014-046-048-049-054-182200-
EAST SLOPES AND CENTRAL MONTANA

CITY           SKY/WX    TMP DP  RH WIND       PRES   REMARKS
CUT BANK       FAIR      48  16  27 S8        30.16S
GREAT FALLS    FAIR      50  16  25 E7G16     30.17S
HELENA         FAIR      51  21  30 E6        30.15F
AUGUSTA        FAIR      45  14  29 NW6       30.15S
BOWMANS CRNR   FAIR      47  13  25 W9        30.14S
CHOTEAU          N/A     50  12  22 SW8G16    30.17S
FAIRFIELD      FAIR      50  15  24 W12       30.15S
POWER          FAIR      49  16  26 S10G20    30.16S
RAYNESFORD     FAIR      50  11  20 W8        30.16F
ULM            FAIR      50  15  24 S7        30.17S
WHITE SULPHUR    N/A     46  18  31 S15       30.15F
$$

MTZ011-013-016-021-045-047-050-051-182200-
NORTH CENTRAL MONTANA

CITY           SKY/WX    TMP DP  RH WIND       PRES   REMARKS
HAVRE          FAIR      51  23  33 CALM      30.21S
LEWISTOWN      FAIR      48  12  23 MISG      30.18S
N BAR RANCH    FAIR      50  14  23 N10       30.19F
CHINOOK          N/A     52  27  37 W7        30.21F
GEYSER         FAIR      48  13  25 CALM      30.17S
GRASS RANGE    PTSUNNY   48  17  29 E6        30.16S
STANFORD       FAIR      48  13  24 E7        30.17S
$$

MTZ017>020-022>027-061-062-182200-
NORTHEAST MONTANA

CITY           SKY/WX    TMP DP  RH WIND       PRES   REMARKS
GLASGOW        PTSUNNY   55  33  43 VRB7      30.22S
GLENDIVE       FAIR      53  31  42 NW13      30.20R
JORDAN           N/A     55  31  39 NW9       30.20S
MALTA          SUNNY     52  36  54 CALM      30.21S
SIDNEY         FAIR      53  34  48 N13       30.22R
WOLF POINT     FAIR      57  35  43 NW9G18    30.23R
PLENTYWOOD       N/A     43  39  87 MISG      30.24R
POPLAR           N/A     52  32  46 MISG      30.23S
SCOBEY           N/A     47  30  51 NW8       30.20R
$$

MTZ028>42-056>058-182200-
SOUTHCENTRAL AND SOUTHEAST MONTANA

CITY           SKY/WX    TMP DP  RH WIND       PRES   REMARKS
BAKER          FAIR      54  30  40 NW16      30.19R
BILLINGS       PTSUNNY   52  18  26 E5        30.19F
LIVINGSTON     FAIR      52  17  25 MISG      30.14F
MILES CITY     FAIR      55  35  47 NW10G18   30.21S
BIG TIMBER     MOSUNNY   50  16  25 NW10      30.17F
FORSYTH          N/A     54  25  32 NW5       30.21S
HARLOWTON      FAIR      50  14  23 W14G25    30.17F
LAUREL           N/A     54  14  20 VRB6G14   30.19F
ROUNDUP          N/A     53  15  22 W12       30.09F
$$

REGIONAL REPORTS...DAKOTAS

CITY           SKY/WX    TMP DP  RH WIND       PRES   REMARKS
WILLISTON      FAIR      49  35  58 N9        30.23R
MINOT          PTSUNNY   48  36  63 W7        30.21S
DICKINSON      FAIR      50  33  52 N10       30.17R
BEACH          FAIR      54  28  37 N14G24    30.22R
CROSBY           N/A     37  37 100 N7        30.25R
TIOGA          CLOUDY    37  37 100 NW7       30.24R
WATFORD CITY   FAIR      50  36  57 CALM      30.20S
BISMARCK       FAIR      50  32  50 N9        30.20R
GRAND FORKS    PTSUNNY   48  30  49 NE14      30.17S
FARGO          FAIR      52  34  50 N16       30.11R
BUFFALO SD       N/A     56  26  31 N24G30    30.09S
RAPID CITY     PTSUNNY   53  25  33 NW24G40   30.18R
$$

REGIONAL REPORTS...WYOMING/IDAHO/WASHINGTON

CITY           SKY/WX    TMP DP  RH WIND       PRES   REMARKS
GILLETTE       PTSUNNY   50  23  34 N14G22    30.21F
SHERIDAN       FAIR      50  22  33 SW6       30.22F
BUFFALO WY     CLOUDY    48  20  32 NW8       30.23F
CODY           FAIR      49  17  28 SE10G17   30.18F
YELLOWSTONE LA   N/A     35  16  45 VRB3      30.21S
IDAHO FALLS    FAIR      48  16  27 VRB5      30.17F
BOISE          FAIR      62  19  19 S20G29    30.04F
SPOKANE        PTSUNNY   52  28  39 NE8       30.18F
$$

REGIONAL REPORTS...ALBERTA

CITY           SKY/WX    TMP DP  RH WIND       PRES   REMARKS
CALGARY        MOSUNNY   46  19  34 E13       30.13R
CARDSTON         N/A     48  19  32 W7          N/A
EDMONTON       MOSUNNY   46  18  31 NW5       30.13R
FORT MCMURRAY  PTSUNNY   43  21  42 NW10      30.06R
HIGH LEVEL     MOSUNNY   43  12  28 NW9G23    29.95R
LETHBRIDGE     MOSUNNY   52  19  28 SW16G25   30.15R
LLOYDMINSTER   MOSUNNY   43  28  56 W12       30.16R
MEDICINE HAT   MOSUNNY   55  25  30 S17G26    30.16S
MILK RIVER       N/A     52  19  28 SW14G20     N/A
ONEFOUR          N/A     46  25  42 E7          N/A
PEACE RIVER    PTSUNNY   43  23  45 SW10      30.03R
PINCHER CREEK  SUNNY     46  25  42 W17G23    30.14R
WATERTON GATE    N/A     45  25  45 SW12G20     N/A
$$

REGIONAL REPORTS...SASKATCHEWAN

CITY           SKY/WX    TMP DP  RH WIND       PRES   REMARKS
ESTEVAN        CLOUDY    39  36  87 NW8       30.24R FOG
MOOSE JAW        N/A     45  32  61 E6          N/A
PRINCE ALBERT  MOSUNNY   45  28  53 SW14      30.19R
REGINA         MOSUNNY   43  28  56 N6        30.26R
ROCKGLEN         N/A     43  34  70 N9          N/A
SASKATOON      SUNNY     46  32  57 SW14      30.24R
SWIFT CURRENT  SUNNY     48  25  40 S7        30.23R
VAL MARIE        N/A     48  27  43 NW7         N/A
$$




USA.gov is the U.S. government's official web portal to all federal, state and local government web resources and services.